FW4072 Weather Reports


Display with metric or nautical units.
time (UTC)temp
F
wind
direction
speed
MPH
gust
MPH
rain 1hr
in
rain 24hr
in
rain mn
in
humidity
%
barometer
mb
20260504081849 75 0.0 2.0 0.00 0.00 0.00 11 1015.9
20260504045043 49 0.0 2.0 0.00 0.00 0.00 66 1015.8
20260504044143 48 0.0 2.0 0.00 0.00 0.00 67 1016.0
20260504043242 47 0.0 2.0 0.00 0.00 0.00 70 1016.0
20260504042341 46 0.0 2.0 0.00 0.00 0.00 72 1015.9
20260504041441 45 0.0 2.0 0.00 0.00 0.00 73 1015.8
20260504040620 44 0.0 1.0 0.00 0.00 0.00 74 1015.9
20260504035639 44 0.0 1.0 0.00 0.00 0.00 75 1016.0
20260504034740 43 0.0 1.0 0.00 0.00 0.00 75 1016.0
20260504033838 43 0.0 1.0 0.00 0.00 0.00 77 1015.8
20260504032037 42 0.0 2.0 0.00 0.00 0.00 76 1015.9
20260504031136 41 0.0 0.0 0.00 0.00 0.00 76 1016.0
20260504030235 41 0.0 0.0 0.00 0.00 0.00 75 1015.8
20260504025335 41 0.0 0.0 0.00 0.00 0.00 75 1015.9
20260504024434 40 0.0 1.0 0.00 0.00 0.00 74 1015.9
20260504023534 41 0.0 0.0 0.00 0.00 0.00 74 1015.8
20260504022653 41 0.0 0.0 0.00 0.00 0.00 74 1015.8
20260504021732 41 0.0 0.0 0.00 0.00 0.00 73 1015.8
20260504020831 41 0.0 0.0 0.00 0.00 0.00 72 1016.0
20260504015031 42 0.0 0.0 0.00 0.00 0.00 71 1016.2
20260504014131 42 0.0 0.0 0.00 0.00 0.00 71 1016.3
20260504013229 42 0.0 0.0 0.00 0.00 0.00 70 1016.3
20260504012329 42 0.0 0.0 0.00 0.00 0.00 69 1016.4
20260504011428 42 0.0 1.0 0.00 0.00 0.00 68 1016.5
20260504010527 43 0.0 0.0 0.00 0.00 0.00 67 1016.5
20260504005647 43 0.0 0.0 0.00 0.00 0.00 66 1016.5
20260504004726 44 0.0 0.0 0.00 0.00 0.00 66 1016.5
20260504003825 44 0.0 1.0 0.00 0.00 0.00 64 1016.4
20260504002045 45 0.0 1.0 0.00 0.00 0.00 63 1016.5
20260504001124 45 0.0 1.0 0.00 0.00 0.00 63 1016.3
20260504000223 46 158 1.0 2.0 0.00 0.00 0.00 63 1016.5
20260503235322 46 0.0 1.0 0.00 0.00 0.00 64 1016.4
20260503234422 46 0.0 1.0 0.00 0.00 0.00 63 1016.4
20260503233541 45 0.0 1.0 0.00 0.00 0.00 63 1016.4
20260503232620 45 0.0 1.0 0.00 0.00 0.00 63 1016.6
20260503231720 46 0.0 1.0 0.00 0.00 0.00 62 1016.6
20260503230819 46 0.0 2.0 0.00 0.00 0.00 61 1016.5
20260503225018 46 0.0 0.0 0.00 0.00 0.00 60 1016.6
20260503224117 47 0.0 1.0 0.00 0.00 0.00 59 1016.5
20260503223208 47 0.0 0.0 0.00 0.00 0.00 57 1016.5
20260503222246 48 0.0 1.0 0.00 0.00 0.00 56 1016.7
20260503221345 48 0.0 0.0 0.00 0.00 0.00 55 1016.6
20260503220444 49 0.0 1.0 0.00 0.00 0.00 53 1016.6
20260503215543 49 0.0 1.0 0.00 0.00 0.00 52 1016.6
20260503214643 50 0.0 2.0 0.00 0.00 0.00 50 1016.7
20260503213742 51 0.0 0.0 0.00 0.00 0.00 48 1016.6
20260503212842 52 0.0 0.0 0.00 0.00 0.00 46 1016.7
20260503211041 53 0.0 1.0 0.00 0.00 0.00 44 1016.8
20260503210140 53 0.0 2.0 0.00 0.00 0.00 44 1016.9
20260503205300 53 0.0 0.0 0.00 0.00 0.00 43 1017.1
20260503204339 53 0.0 0.0 0.00 0.00 0.00 42 1017.3
20260503203521 53 0.0 1.0 0.00 0.00 0.00 42 1017.3
20260503202537 53 0.0 1.0 0.00 0.00 0.00 43 1017.2
20260503201637 52 0.0 1.0 0.00 0.00 0.00 45 1017.2
20260503200758 53 0.0 0.0 0.00 0.00 0.00 44 1017.4
20260503195836 53 0.0 0.0 0.00 0.00 0.00 43 1017.5
20260503194035 52 158 1.0 2.0 0.00 0.00 0.00 43 1017.7
20260503193134 52 0.0 0.0 0.00 0.00 0.00 43 1017.7
20260503192233 52 0.0 0.0 0.00 0.00 0.00 43 1017.9
20260503191334 52 0.0 0.0 0.00 0.00 0.00 42 1017.9
20260503190432 52 0.0 0.0 0.00 0.00 0.00 41 1017.8
20260503185533 52 0.0 0.0 0.00 0.00 0.00 40 1018.0
20260503184632 52 0.0 0.0 0.00 0.00 0.00 38 1017.9
20260503183730 53 0.0 0.0 0.00 0.00 0.00 37 1017.9
20260503182831 54 0.0 0.0 0.00 0.00 0.00 34 1017.8
20260503181028 54 135 1.0 2.0 0.00 0.00 0.00 33 1017.8
20260503180128 55 135 1.0 2.0 0.00 0.00 0.00 31 1017.8
20260503175229 55 0.0 1.0 0.00 0.00 0.00 29 1017.7
20260503174326 56 0.0 1.0 0.00 0.00 0.00 27 1017.6
20260503173426 57 0.0 2.0 0.00 0.00 0.00 26 1017.5
20260503172525 57 0.0 1.0 0.00 0.00 0.00 25 1017.6
20260503171624 57 0.0 2.0 0.00 0.00 0.00 23 1017.5
20260503170724 58 0.0 1.0 0.00 0.00 0.00 21 1017.5
20260503131237 69 0.0 2.0 0.00 0.00 0.00 1019.3
20260503130337 69 113 1.0 2.0 0.00 0.00 0.00 1019.5